Flag for Norway Weather past 2 weeks in Grimstad, Norway

Now
62 °F

Mild.


Feels Like: 62 °F
Forecast: 50 / 62 °F
Wind: 6 mph from Northwest

Location: Torungen Fyr

Current Time: Jul 31, 2015 at 11:47:39 AM

Latest Report: Jul 31, 2015 at 11:00 AM


Visibility: N/A

Pressure: 29.79 "Hg

Humidity: 49%

Dew point: 43 °F

Location of GrimstadLocation

Historic Weather in Grimstad — Graph

°F

Grimstad temperature yesterday

Maximum temperature yesterday: 64 °F (at 12:00 PM)
Minimum temperature yesterday: 57 °F (at 1:00 AM)
Average temperature yesterday: 60 °F

Past Weeks' High & Low Weather Summary

 TemperatureHumidityPressure
High71 °F (Jul 16, 5:00 PM)96% (Jul 18, 3:00 AM)30.07 "Hg (Jul 18, 3:00 AM)
Low52 °F (Jul 27, 7:00 AM)26% (Jul 16, 5:00 PM)29.32 "Hg (Jul 29, 7:00 AM)
Average58 °F78%29.67 "Hg
* Reported Jul 16 10:00 AM — Jul 31 10:00 AM, Grimstad, Weather by CustomWeather, © 2015

Note: Actual official high and low records may vary slightly from our data, if they occured in-between our weather recording intervals... More about our weather records

Advertising

Grimstad weather history for previous 24 hours

 ConditionsComfort  
Time TempWeatherWind HumidityBarometerVisibility
10:00 AM
Fri, Jul 31
60 °FRefreshingly cool.9 mph54%29.77 "HgN/A
9:00 AM58 °FCool.8 mph62%29.75 "HgN/A
8:00 AM56 °FCool.6 mph66%29.74 "HgN/A
7:00 AM55 °FCool.7 mph69%29.72 "HgN/A
6:00 AM56 °FCool.8 mph70%29.70 "HgN/A
4:00 AM56 °FCool.6 mph74%29.68 "HgN/A
3:00 AM56 °FCool.6 mph76%29.67 "HgN/A
2:00 AM56 °FCool.6 mph79%29.66 "HgN/A
1:00 AM57 °FCool.6 mph83%29.65 "HgN/A
12:00 AM58 °FCool.3 mph90%29.63 "HgN/A
10:00 PM
Thu, Jul 30
61 °FCool.5 mph87%29.61 "HgN/A
9:00 PM61 °FCool.3 mph87%29.60 "HgN/A
8:00 PM61 °FCool.5 mph86%29.61 "HgN/A
7:00 PM63 °FMild.3 mph82%29.61 "HgN/A
6:00 PM63 °FMild.2 mph80%29.60 "HgN/A
5:00 PM62 °FCool.3 mph86%29.59 "HgN/A
4:00 PM62 °FCool.6 mph84%29.59 "HgN/A
3:00 PM63 °FMild.8 mph82%29.59 "HgN/A
2:00 PM63 °FMild.7 mph77%29.58 "HgN/A
1:00 PM64 °FMild.5 mph78%29.57 "HgN/A
12:00 PM64 °FMild.5 mph75%29.56 "HgN/A
11:00 AM63 °FMild.2 mph79%29.55 "HgN/A
Weather by CustomWeather, © 2015

See weather overviewHow to use our weather pages